Terug naar catalogus

NOAA 16 DEB

ActiefSSO
NORAD 41164·DEBRIS·🇺🇸 United States

Gelanceerd Sep 21, 2000 vanaf Vandenberg Space Force Base

Loading…

Volgende Passages (komende 24 uur)

TLE

VersSource: Space-Track

Epoch: Sep 12, 2026, 11:00 UTC

1 41164U 00055CX  26255.45844390  .00003403  00000-0  15404-2 0  9999
2 41164  98.9651 339.6961 0058353 139.7007 220.8516 14.21760132552467

Volg NOAA 16 DEB in realtime met AllMySat

Download on the App Store